San Jose, Costa Rica

12:15 PM CST on October 21, 2017 (GMT -0600)
Juan Santamaria International

Weather History for MROC - February, 2014

Change the Weather History Date:

Tuesday, February 18, 2014

  Actual Average Record
Temperature  
Mean Temperature 73 °F -  
Max Temperature 82 °F 82 °F 89 °F (1998)
Min Temperature 64 °F 64 °F 59 °F (2007)
Cooling Degree Days 8    
Growing Degree Days 23 (Base 50)    
Moisture  
Dew Point 55 °F    
Average Humidity 52    
Maximum Humidity 68    
Minimum Humidity 31    
Precipitation  
Precipitation 0.00 in 0.02 in - ()
Sea Level Pressure  
Sea Level Pressure 29.94 in    
Wind  
Wind Speed 14 mph ()    
Max Wind Speed 29 mph    
Max Gust Speed 32 mph    
Visibility 8.1 miles    
Events      
Averages and records for this station are not official NWS values.
T = Trace of Precipitation, MM = Missing Value Source: Averaged Metar Reports

Daily Weather History Graph

Daily Weather History Graph

Search for Another Location

Airport or City:

Trip Planner

Search our weather history database for the weather conditions in past years. The results will help you decide how hot, cold, wet, or windy it might be!

Date:

Astronomy

Feb. 18, 2014 Rise Set
Actual Time 5:55 AM CST 5:46 PM CST
Civil Twilight 5:34 AM CST 6:07 PM CST
Nautical Twilight 5:09 AM CST 6:32 PM CST
Astronomical Twilight 4:44 AM CST 6:56 PM CST
Moon 8:47 PM CST (2/18) 8:13 AM CST (2/18)
Length of Visible Light 12h 33m
Length of Day
11h 50m
Waning Gibbous, 87% of the Moon is Illuminated
Feb 18
Waning Gibbous
Feb 22
Last Quarter
Mar 1
New
Mar 8
First Quarter
Mar 16
Full

Hourly Weather History & Observations

Time (CST) Temp. Heat Index Dew Point Humidity Pressure Visibility Wind Dir Wind Speed Gust Speed Precip Events Conditions
12:00 AM 69 °F - 52 °F 44% 29.81 in 12 mi ESE 15.0 mph - -   Scattered Clouds
12:00 AM 68.0 °F - 51.8 °F 56% 29.99 in 6.2 mi ESE 15.0 mph 26.5 mph N/A   Partly Cloudy
1:00 AM 68.0 °F - 53.6 °F 60% 29.99 in 6.2 mi East 13.8 mph 26.5 mph N/A   Partly Cloudy
2:00 AM 66.2 °F - 53.6 °F 64% 29.97 in 6.2 mi ESE 15.0 mph 26.5 mph N/A   Partly Cloudy
3:00 AM 66 °F - 53 °F 54% 29.78 in 12 mi ESE 17.3 mph - -  
3:00 AM 66.2 °F - 53.6 °F 64% 29.95 in - ESE 17.3 mph 29.9 mph N/A   Clear
4:00 AM 66.2 °F - 53.6 °F 64% 29.96 in - ESE 15.0 mph 26.5 mph N/A   Clear
5:00 AM 66.2 °F - 53.6 °F 64% 29.98 in - ESE 16.1 mph 28.8 mph N/A   Clear
6:00 AM 65 °F - 52 °F 54% 29.83 in 12 mi ESE 13.8 mph - -  
6:00 AM 66.2 °F - 51.8 °F 60% 30.00 in - ESE 13.8 mph - N/A   Clear
7:00 AM 68.0 °F - 51.8 °F 56% 29.99 in - ESE 16.1 mph - N/A   Clear
8:00 AM 71.6 °F - 55.4 °F 57% 30.00 in - East 16.1 mph 32.2 mph N/A   Clear
9:00 AM 76 °F - 55 °F 38% 29.85 in 12 mi ESE 28.8 mph - -  
9:00 AM 77.0 °F - 55.4 °F 47% 30.02 in - ESE 16.1 mph 28.8 mph N/A   Clear
10:00 AM 78.8 °F - 55.4 °F 44% 30.02 in - ESE 17.3 mph 28.8 mph N/A   Clear
11:00 AM 80.6 °F 80.8 °F 57.2 °F 45% 30.01 in 6.2 mi East 16.1 mph 27.6 mph N/A   Partly Cloudy
12:00 PM 82 °F - 56 °F 31% 29.83 in 12 mi East 25.3 mph - -   Scattered Clouds
12:00 PM 80.6 °F 80.8 °F 57.2 °F 45% 29.99 in 6.2 mi East 13.8 mph 25.3 mph N/A   Partly Cloudy
1:00 PM 78.8 °F - 57.2 °F 47% 29.98 in 6.2 mi East 12.7 mph 25.3 mph N/A   Partly Cloudy
2:00 PM 80.6 °F 80.5 °F 55.4 °F 42% 29.96 in 6.2 mi ENE 16.1 mph 27.6 mph N/A   Scattered Clouds
3:00 PM 79 °F - 57 °F 36% 29.80 in 12 mi ENE 15.0 mph - -   Scattered Clouds
3:00 PM 78.8 °F - 57.2 °F 47% 29.92 in 6.2 mi ENE 15.0 mph 26.5 mph N/A   Scattered Clouds
4:00 PM 75.2 °F - 55.4 °F 50% 29.94 in 6.2 mi East 18.4 mph 32.2 mph N/A   Partly Cloudy
5:00 PM 73.4 °F - 55.4 °F 53% 29.95 in 6.2 mi East 16.1 mph 27.6 mph N/A   Partly Cloudy
6:00 PM 71 °F - 54 °F 44% 29.83 in 12 mi East 12.7 mph - -   Scattered Clouds
6:00 PM 71.6 °F - 53.6 °F 53% 29.95 in 6.2 mi East 12.7 mph 25.3 mph N/A   Partly Cloudy
7:00 PM 69.8 °F - 53.6 °F 56% 29.97 in 6.2 mi East 13.8 mph 25.3 mph N/A   Partly Cloudy
8:00 PM 69.8 °F - 55.4 °F 60% 29.99 in 6.2 mi East 13.8 mph 26.5 mph N/A   Partly Cloudy
9:00 PM 68 °F - 56 °F 57% 29.87 in 12 mi East 11.5 mph - -   Scattered Clouds
9:00 PM 68.0 °F - 57.2 °F 68% 30.01 in 6.2 mi East 11.5 mph - N/A   Partly Cloudy
10:00 PM 69.8 °F - 53.6 °F 56% 30.01 in 6.2 mi East 13.8 mph 25.3 mph N/A   Partly Cloudy
11:00 PM 68.0 °F - 51.8 °F 56% 30.02 in 6.2 mi East 11.5 mph 23.0 mph N/A   Partly Cloudy